Location: Unspecified
(44.4377°N, 88.0525°W)
Time: 10:31:19
(UTC-05:00)

CZ-3 Stage 3 - Visible Passes

Search period start: 21 April 2014 00:00
Search period end: 01 May 2014 00:00
Orbit: 476 x 34781 km, 30.6° (Epoch: 19 April)

Date Brightness Start Highest point End Pass type
(mag) Time Alt. Az. Time Alt. Az. Time Alt. Az.
21 Apr 6.5 00:09:50 11° ESE 00:09:50 11° ESE 00:10:24 10° ESE visible
23 Apr 5.5 03:34:48 28° SW 03:40:49 35° S 07:16:44 10° SSE visible
24 Apr 6.5 00:08:48 12° ESE 00:08:48 12° ESE 00:09:58 10° ESE visible
26 Apr 5.6 03:33:46 27° SW 03:40:17 34° S 07:16:32 10° SSE visible
27 Apr 6.5 00:07:45 12° ESE 00:07:45 12° ESE 00:09:30 10° ESE visible
29 Apr 5.7 03:32:44 26° SW 03:39:47 32° S 07:13:18 10° SSE visible
30 Apr 6.5 00:06:44 13° ESE 00:06:44 13° ESE 00:09:00 10° ESE visible
